CW3642 Weather Reports


Display with metric or nautical units.
time (UTC)temp
F
wind
direction
speed
MPH
gust
MPH
rain 1hr
in
rain 24hr
in
rain mn
in
humidity
%
barometer
mb
20260906214239 75 348 0.0 0.0 0.00 0.00 0.00 55 1020.1
20260906213739 75 332 0.0 0.0 0.00 0.00 0.00 55 1020.1
20260906213239 75 292 0.0 0.0 0.00 0.00 0.00 56 1020.1
20260906212739 75 331 0.0 0.0 0.00 0.00 0.00 54 1020.0
20260906211739 76 348 0.0 0.0 0.00 0.00 0.00 54 1020.1
20260906210739 76 316 0.0 0.0 0.00 0.00 0.00 53 1020.2
20260906210239 76 11 0.0 0.0 0.00 0.00 0.00 52 1020.1
20260906204239 76 296 0.0 0.0 0.00 0.00 0.00 53 1020.2
20260906203739 76 323 0.0 0.0 0.00 0.00 0.00 52 1020.1
20260906203239 76 5 0.0 0.0 0.00 0.00 0.00 54 1020.2
20260906202739 76 296 0.0 0.0 0.00 0.00 0.00 55 1020.2
20260906202239 76 312 0.0 0.0 0.00 0.00 0.00 54 1020.2
20260906201739 76 323 0.0 0.0 0.00 0.00 0.00 55 1020.2
20260906201239 76 28 0.0 0.0 0.00 0.00 0.00 53 1020.2
20260906200739 76 311 0.0 0.0 0.00 0.00 0.00 55 1020.3
20260906200239 76 316 0.0 0.0 0.00 0.00 0.00 55 1020.3
20260906195739 77 325 0.0 0.0 0.00 0.00 0.00 53 1020.3
20260906195239 77 327 0.0 0.0 0.00 0.00 0.00 52 1020.3
20260906194739 77 336 0.0 0.0 0.00 0.00 0.00 53 1020.2
20260906194239 77 355 0.0 0.0 0.00 0.00 0.00 55 1020.3
20260906193739 77 340 0.0 0.0 0.00 0.00 0.00 52 1020.4
20260906193239 77 330 0.0 0.0 0.00 0.00 0.00 55 1020.2
20260906192739 77 80 0.0 0.0 0.00 0.00 0.00 53 1020.3
20260906192239 77 320 0.0 0.0 0.00 0.00 0.00 53 1020.3
20260906191739 77 316 0.0 0.0 0.00 0.00 0.00 53 1020.4
20260906191239 77 338 0.0 0.0 0.00 0.00 0.00 53 1020.3
20260906190239 77 275 0.0 0.0 0.00 0.00 0.00 54 1020.3
20260906185739 77 292 0.0 0.0 0.00 0.00 0.00 54 1020.3
20260906185239 77 319 0.0 0.0 0.00 0.00 0.00 55 1020.5
20260906183739 76 331 0.0 0.0 0.00 0.00 0.00 55 1020.3
20260906183239 77 63 0.0 0.0 0.00 0.00 0.00 54 1020.5
20260906182739 77 255 0.0 0.0 0.00 0.00 0.00 55 1020.5
20260906182239 77 321 0.0 0.0 0.00 0.00 0.00 54 1020.6
20260906181739 77 348 0.0 0.0 0.00 0.00 0.00 53 1020.6
20260906181239 76 355 0.0 0.0 0.00 0.00 0.00 56 1020.6
20260906180739 77 28 0.0 0.0 0.00 0.00 0.00 52 1020.6
20260906175751 77 60 0.0 0.0 0.00 0.00 0.00 50 1020.7
20260906175251 77 300 0.0 0.0 0.00 0.00 0.00 52 1020.7
20260906174751 77 5 0.0 0.0 0.00 0.00 0.00 53 1020.8
20260906174251 76 303 0.0 0.0 0.00 0.00 0.00 53 1020.9
20260906173751 76 338 0.0 0.0 0.00 0.00 0.00 51 1020.9
20260906172740 75 43 0.0 0.0 0.00 0.00 0.00 53 1021.1
20260906172240 76 348 0.0 0.0 0.00 0.00 0.00 52 1021.2
20260906171240 76 345 0.0 0.0 0.00 0.00 0.00 53 1021.2
20260906170740 76 26 0.0 0.0 0.00 0.00 0.00 52 1021.2
20260906170240 76 331 0.0 0.0 0.00 0.00 0.00 57 1021.3
20260906165740 76 5 0.0 0.0 0.00 0.00 0.00 59 1021.3
20260906165240 76 260 0.0 0.0 0.00 0.00 0.00 59 1021.4
20260906164740 76 329 0.0 0.0 0.00 0.00 0.00 56 1021.5
20260906164240 75 323 0.0 0.0 0.00 0.00 0.00 59 1021.5
20260906163740 75 15 0.0 0.0 0.00 0.00 0.00 58 1021.6
20260906163240 75 25 0.0 0.0 0.00 0.00 0.00 60 1021.7
20260906162740 75 5 0.0 0.0 0.00 0.00 0.00 57 1021.7
20260906162240 75 338 0.0 0.0 0.00 0.00 0.00 59 1021.7
20260906161740 75 360 0.0 0.0 0.00 0.00 0.00 60 1021.7
20260906161240 74 345 0.0 0.0 0.00 0.00 0.00 61 1021.6
20260906160740 74 24 0.0 0.0 0.00 0.00 0.00 62 1021.7
20260906155240 75 335 0.0 0.0 0.00 0.00 0.00 64 1021.8
20260906154740 74 329 0.0 0.0 0.00 0.00 0.00 62 1021.8
20260906154240 74 332 0.0 0.0 0.00 0.00 0.00 63 1021.8
20260906153740 74 13 0.0 0.0 0.00 0.00 0.00 63 1021.7
20260906153240 74 190 0.0 0.0 0.00 0.00 0.00 64 1021.7
20260906152740 74 316 0.0 0.0 0.00 0.00 0.00 64 1021.8
20260906152240 74 19 0.0 0.0 0.00 0.00 0.00 63 1021.7
20260906151740 74 288 0.0 0.0 0.00 0.00 0.00 66 1021.7
20260906151240 73 39 0.0 0.0 0.00 0.00 0.00 65 1021.6
20260906150740 73 336 0.0 0.0 0.00 0.00 0.00 66 1021.7
20260906150240 73 306 0.0 0.0 0.00 0.00 0.00 67 1021.6
20260906145740 73 15 0.0 0.0 0.00 0.00 0.00 68 1021.5
20260906145240 72 15 0.0 0.0 0.00 0.00 0.00 69 1021.5
20260906144740 72 58 0.0 0.0 0.00 0.00 0.00 69 1021.5
20260906144240 72 63 0.0 0.0 0.00 0.00 0.00 68 1021.5
20260906143740 72 318 0.0 0.0 0.00 0.00 0.00 70 1021.5
20260906143240 72 26 0.0 0.0 0.00 0.00 0.00 70 1021.4
20260906141740 72 42 0.0 0.0 0.00 0.00 0.00 71 1021.4
20260906140740 71 19 0.0 0.0 0.00 0.00 0.00 74 1021.3
20260906135731 70 44 0.0 0.0 0.00 0.00 0.00 77 1021.3
20260906135231 69 60 0.0 0.0 0.00 0.00 0.00 80 1021.4
20260906134801 68 60 0.0 0.0 0.00 0.00 0.00 84 1021.4
20260906134231 67 60 0.0 0.0 0.00 0.00 0.00 85 1021.3
20260906133731 66 60 0.0 0.0 0.00 0.00 0.00 91 1021.2
20260906133231 65 60 0.0 0.0 0.00 0.00 0.00 94 1021.2
20260906132731 64 60 0.0 0.0 0.00 0.00 0.00 93 1021.3
20260906132231 62 60 0.0 0.0 0.00 0.00 0.00 93 1021.1
20260906131801 61 60 0.0 0.0 0.00 0.00 0.00 93 1021.0
20260906130301 59 60 0.0 0.0 0.00 0.00 0.00 93 1020.9
20260906125231 58 60 0.0 0.0 0.00 0.00 0.00 93 1020.9
20260906124731 57 60 0.0 0.0 0.00 0.00 0.00 93 1020.9
20260906124231 56 60 0.0 0.0 0.00 0.00 0.00 93 1020.8
20260906123731 55 60 0.0 0.0 0.00 0.00 0.00 93 1020.8
20260906123231 54 60 0.0 0.0 0.00 0.00 0.00 93 1020.6
20260906122731 52 60 0.0 0.0 0.00 0.00 0.00 93 1020.6
20260906122231 51 60 0.0 0.0 0.00 0.00 0.00 93 1020.5
20260906121731 50 60 0.0 0.0 0.00 0.00 0.00 93 1020.4
20260906120731 49 60 0.0 0.0 0.00 0.00 0.00 94 1020.4
20260906120231 49 60 0.0 0.0 0.00 0.00 0.00 94 1020.4
20260906115801 49 60 0.0 0.0 0.00 0.00 0.00 94 1020.3
20260906115231 49 60 0.0 0.0 0.00 0.00 0.00 94 1020.4
20260906114731 49 60 0.0 0.0 0.00 0.00 0.00 94 1020.4
20260906114231 49 60 0.0 0.0 0.00 0.00 0.00 94 1020.4
20260906113731 49 60 0.0 0.0 0.00 0.00 0.00 94 1020.4
20260906113231 49 60 0.0 0.0 0.00 0.00 0.00 94 1020.4
20260906112731 49 52 0.0 0.0 0.00 0.00 0.00 94 1020.3
20260906112231 49 52 0.0 0.0 0.00 0.00 0.00 94 1020.4
20260906111731 49 52 0.0 0.0 0.00 0.00 0.00 94 1020.3
20260906111231 48 52 0.0 0.0 0.00 0.00 0.00 94 1020.2
20260906110731 48 52 0.0 0.0 0.00 0.00 0.00 94 1020.3
20260906110231 48 52 0.0 0.0 0.00 0.00 0.00 94 1020.2
20260906105800 48 52 0.0 0.0 0.00 0.00 0.00 94 1020.3
20260906105301 48 52 0.0 0.0 0.00 0.00 0.00 94 1020.3
20260906104731 49 52 0.0 0.0 0.00 0.00 0.00 94 1020.3
20260906104231 49 52 0.0 0.0 0.00 0.00 0.00 94 1020.3
20260906103731 49 52 0.0 0.0 0.00 0.00 0.00 94 1020.4
20260906103231 49 52 0.0 0.0 0.00 0.00 0.00 94 1020.4
20260906102731 49 52 0.0 0.0 0.00 0.00 0.00 94 1020.4
20260906101731 49 52 0.0 0.0 0.00 0.00 0.00 94 1020.2
20260906101231 49 52 0.0 0.0 0.00 0.00 0.00 94 1020.2
20260906100731 49 52 0.0 0.0 0.00 0.00 0.00 94 1020.2
20260906095735 49 52 0.0 0.0 0.00 0.00 0.00 94 1020.1
20260906095234 49 52 0.0 0.0 0.00 0.00 0.00 94 1020.2
20260906094735 49 52 0.0 0.0 0.00 0.00 0.00 94 1020.1
20260906094235 49 52 0.0 0.0 0.00 0.00 0.00 94 1020.0
20260906093735 49 52 0.0 0.0 0.00 0.00 0.00 95 1020.0
20260906093234 49 52 0.0 0.0 0.00 0.00 0.00 94 1020.0
20260906092735 49 52 0.0 0.0 0.00 0.00 0.00 95 1019.9
20260906092234 50 52 0.0 0.0 0.00 0.00 0.00 94 1019.8
20260906091734 50 52 0.0 0.0 0.00 0.00 0.00 94 1019.8
20260906091234 50 52 0.0 0.0 0.00 0.00 0.00 94 1019.8
20260906090734 50 52 0.0 0.0 0.00 0.00 0.00 94 1019.8
20260906090235 50 52 0.0 0.0 0.00 0.00 0.00 94 1019.7
20260906085735 50 52 0.0 0.0 0.00 0.00 0.00 94 1019.8
20260906085235 50 52 0.0 0.0 0.00 0.00 0.00 94 1019.7
20260906084735 50 52 0.0 0.0 0.00 0.00 0.00 94 1019.7
20260906083734 50 52 0.0 0.0 0.00 0.00 0.00 94 1019.6
20260906083234 50 52 0.0 0.0 0.00 0.00 0.00 94 1019.6
20260906082734 50 52 0.0 0.0 0.00 0.00 0.00 94 1019.5
20260906081734 50 52 0.0 0.0 0.00 0.00 0.00 95 1019.2
20260906081235 50 52 0.0 0.0 0.00 0.00 0.00 95 1019.2
20260906080735 50 52 0.0 0.0 0.00 0.00 0.00 95 1019.2
20260906080235 50 52 0.0 0.0 0.00 0.00 0.00 94 1019.1
20260906075734 50 52 0.0 0.0 0.00 0.00 0.00 94 1019.1
20260906073235 51 52 0.0 0.0 0.00 0.00 0.00 94 1019.1
20260906072734 51 52 0.0 0.0 0.00 0.00 0.00 94 1019.0
20260906072234 51 52 0.0 0.0 0.00 0.00 0.00 95 1019.1
20260906071734 51 52 0.0 0.0 0.00 0.00 0.00 94 1019.1
20260906071234 51 52 0.0 0.0 0.00 0.00 0.00 94 1019.0
20260906070734 52 52 0.0 0.0 0.00 0.00 0.00 94 1019.2
20260906070234 52 52 0.0 0.0 0.00 0.00 0.00 94 1019.1
20260906065235 52 52 0.0 0.0 0.00 0.00 0.00 94 1019.0
20260906064235 52 52 0.0 0.0 0.00 0.00 0.00 94 1019.1
20260906063735 52 41 0.0 0.0 0.00 0.00 0.00 94 1019.1
20260906063234 52 41 0.0 0.0 0.00 0.00 0.00 94 1019.2
20260906062734 52 78 0.0 0.0 0.00 0.00 0.00 94 1019.2
20260906062234 52 78 0.0 0.0 0.00 0.00 0.00 94 1019.3
20260906061734 52 78 0.0 0.0 0.00 0.00 0.00 94 1019.3
20260906061234 52 78 0.0 0.0 0.00 0.00 0.00 94 1019.2
20260906060734 52 78 0.0 0.0 0.00 0.00 0.00 94 1019.1
20260906055750 53 78 0.0 0.0 0.00 0.00 0.00 94 1019.1
20260906055250 53 78 0.0 0.0 0.00 0.00 0.00 94 1019.0
20260906054250 53 78 0.0 0.0 0.00 0.00 0.00 94 1019.0
20260906053750 53 78 0.0 0.0 0.00 0.00 0.00 94 1019.0
20260906053250 53 78 0.0 0.0 0.00 0.00 0.00 94 1018.9
20260906052750 53 78 0.0 0.0 0.00 0.00 0.00 94 1018.9
20260906052250 53 78 0.0 0.0 0.00 0.00 0.00 94 1018.8
20260906051750 53 78 0.0 0.0 0.00 0.00 0.00 94 1018.8
20260906051250 54 78 0.0 0.0 0.00 0.00 0.00 94 1018.9
20260906050750 54 78 0.0 0.0 0.00 0.00 0.00 94 1018.8
20260906050250 54 78 0.0 0.0 0.00 0.00 0.00 94 1018.8
20260906045250 54 78 0.0 0.0 0.00 0.00 0.00 94 1018.9
20260906044750 54 78 0.0 0.0 0.00 0.00 0.00 94 1018.9
20260906044250 54 78 0.0 0.0 0.00 0.00 0.00 94 1018.8
20260906043750 54 78 0.0 0.0 0.00 0.00 0.00 94 1018.8
20260906043250 54 78 0.0 0.0 0.00 0.00 0.00 93 1018.7
20260906042750 55 78 0.0 0.0 0.00 0.00 0.00 93 1018.6
20260906042250 55 78 0.0 0.0 0.00 0.00 0.00 93 1018.7
20260906041750 55 78 0.0 0.0 0.00 0.00 0.00 93 1018.7
20260906041250 55 78 0.0 0.0 0.00 0.00 0.00 93 1018.7
20260906035750 56 78 0.0 0.0 0.00 0.00 0.00 93 1018.6
20260906035250 56 78 0.0 0.0 0.00 0.00 0.00 93 1018.6
20260906034750 56 78 0.0 0.0 0.00 0.00 0.00 93 1018.6
20260906033250 56 78 0.0 0.0 0.00 0.00 0.00 92 1018.6
20260906032750 57 78 0.0 0.0 0.00 0.00 0.00 92 1018.5
20260906032250 57 78 0.0 0.0 0.00 0.00 0.00 92 1018.5
20260906031750 57 78 0.0 0.0 0.00 0.00 0.00 92 1018.4
20260906031250 57 78 0.0 0.0 0.00 0.00 0.00 92 1018.3
20260906030750 57 78 0.0 0.0 0.00 0.00 0.00 92 1018.2
20260906025750 58 78 0.0 0.0 0.00 0.00 0.00 92 1018.3
20260906025250 58 53 0.0 0.0 0.00 0.00 0.00 92 1018.2
20260906024750 58 53 0.0 0.0 0.00 0.00 0.00 91 1018.1
20260906024250 58 53 0.0 0.0 0.00 0.00 0.00 92 1018.1
20260906023750 58 53 0.0 0.0 0.00 0.00 0.00 92 1018.1
20260906022750 59 34 0.0 0.0 0.00 0.00 0.00 91 1018.1
20260906022250 59 34 0.0 0.0 0.00 0.00 0.00 91 1018.0
20260906020750 59 34 0.0 0.0 0.00 0.00 0.00 91 1017.8
20260906015803 60 34 0.0 0.0 0.00 0.00 0.00 90 1017.9
20260906015234 60 34 0.0 0.0 0.00 0.00 0.00 90 1017.9
20260906014733 60 34 0.0 0.0 0.00 0.00 0.00 89 1017.9
20260906014233 60 34 0.0 0.0 0.00 0.00 0.00 89 1017.9
20260906013734 61 34 0.0 0.0 0.00 0.00 0.00 88 1018.0
20260906013234 61 34 0.0 0.0 0.00 0.00 0.00 87 1017.8
20260906012733 61 34 0.0 0.0 0.00 0.00 0.00 87 1017.7
20260906012233 62 34 0.0 0.0 0.00 0.00 0.00 86 1017.9
20260906011734 62 34 0.0 0.0 0.00 0.00 0.00 86 1017.7
20260906011233 63 34 0.0 0.0 0.00 0.00 0.00 86 1017.7
20260906010233 64 34 0.0 0.0 0.00 0.00 0.00 83 1017.6
20260906005803 64 34 0.0 0.0 0.00 0.00 0.00 83 1017.7
20260906004733 65 34 0.0 0.0 0.00 0.00 0.00 81 1017.6
20260906004234 66 34 0.0 0.0 0.00 0.00 0.00 80 1017.7
20260906003733 66 34 0.0 0.0 0.00 0.00 0.00 80 1017.6
20260906003234 67 34 0.0 0.0 0.00 0.00 0.00 79 1017.7
20260906002733 67 34 0.0 0.0 0.00 0.00 0.00 79 1017.7
20260906001734 68 34 0.0 0.0 0.00 0.00 0.00 77 1017.7
20260906001234 69 34 0.0 0.0 0.00 0.00 0.00 76 1017.7
20260906000733 69 34 0.0 0.0 0.00 0.00 0.00 76 1017.5
20260906000234 69 34 0.0 0.0 0.00 0.00 0.00 76 1017.5
20260905235733 70 34 0.0 0.0 0.00 0.00 0.00 73 1017.7
20260905235233 70 40 0.0 0.0 0.00 0.00 0.00 73 1017.5
20260905234733 70 5 0.0 0.0 0.00 0.00 0.00 72 1017.5
20260905234234 71 338 0.0 0.0 0.00 0.00 0.00 73 1017.4
20260905233734 71 45 0.0 0.0 0.00 0.00 0.00 71 1017.5
20260905233233 72 5 0.0 0.0 0.00 0.00 0.00 72 1017.5
20260905232733 72 39 0.0 0.0 0.00 0.00 0.00 71 1017.4
20260905232233 72 360 0.0 0.0 0.00 0.00 0.00 69 1017.3
20260905231734 72 26 0.0 0.0 0.00 0.00 0.00 68 1017.3
20260905231233 73 342 0.0 0.0 0.00 0.00 0.00 67 1017.3
20260905230733 73 24 0.0 0.0 0.00 0.00 0.00 66 1017.4
20260905225733 73 344 0.0 0.0 0.00 0.00 0.00 66 1017.3
20260905225233 73 41 0.0 0.0 0.00 0.00 0.00 64 1017.2
20260905224733 74 17 0.0 0.0 0.00 0.00 0.00 66 1017.1
20260905224233 74 18 0.0 0.0 0.00 0.00 0.00 64 1017.1
20260905223733 74 11 0.0 0.0 0.00 0.00 0.00 65 1017.0
20260905222733 74 332 0.0 0.0 0.00 0.00 0.00 64 1017.0
20260905222234 75 65 0.0 0.0 0.00 0.00 0.00 65 1016.9
20260905221733 75 360 0.0 0.0 0.00 0.00 0.00 65 1016.9
20260905221233 75 14 0.0 0.0 0.00 0.00 0.00 63 1016.9
20260905220733 75 319 0.0 0.0 0.00 0.00 0.00 62 1016.9
20260905215800 76 19 0.0 0.0 0.00 0.00 0.00 60 1016.8
20260905215300 76 327 0.0 0.0 0.00 0.00 0.00 60 1016.9
20260905214800 76 347 0.0 0.0 0.00 0.00 0.00 60 1016.8